[[{"header":{"parameterUnit":"m.s-1","parameterCategory":2,"la1":30.2992,"la2":30.254,"lo1":-89.0895,"lo2":-89.0443,"dy":0.0025,"dx":0.0025,"nx":19,"ny":19,"refTime":"2026-04-03T09:00:00:Z","depth":"0","parameterNumber":2,"parameterNumberName":"U-component_of_CURRENTS"},"data":[0,0,0,-0.0819,-0.082,-0.0815,-0.0815,-0.0776,-0.0776,0,0,0,0,0,0,0,0,0,0,0,-0.0817,-0.0817,-0.0819,-0.082,-0.0815,-0.0815,-0.0776,-0.0776,0,0,0,0,0,0,0,0,0,0,0,-0.0817,-0.0817,-0.0817,-0.082,-0.0815,-0.0815,-0.0776,-0.0786,0,0,0,0,0,0,0,0,0,0,-0.0794,-0.0795,-0.0817,-0.0817,-0.082,-0.0815,-0.0815,-0.0787,-0.0786,-0.077,0,-0.0771,0,-0.0776,-0.0773,-0.0773,0,0,0,-0.0814,-0.0797,-0.0801,-0.0817,-0.082,-0.0815,-0.0816,-0.0787,-0.0785,-0.0768,-0.0771,-0.077,-0.0775,-0.0773,-0.0772,-0.0737,-0.0737,0,0,-0.0814,-0.081,-0.0802,-0.08,-0.082,-0.0816,-0.0816,-0.0786,-0.0781,-0.0771,-0.0769,-0.0774,-0.0772,-0.0772,-0.0737,-0.0737,0,0,0,-0.0819,-0.081,-0.0815,-0.0801,-0.0805,-0.0816,-0.0815,-0.0782,-0.0785,-0.0769,-0.0774,-0.0772,-0.0771,-0.0737,-0.0737,-0.0801,0,0,0,-0.0819,-0.0813,-0.0815,-0.0812,-0.0806,-0.0797,-0.0812,-0.0787,-0.0784,-0.0774,-0.0772,-0.0771,-0.0737,-0.0737,-0.0799,-0.0848,0,0,0,-0.0817,-0.0813,-0.0814,-0.0812,-0.0813,-0.0798,-0.0799,-0.0787,-0.0788,-0.0773,-0.0771,-0.0737,-0.0737,-0.0798,-0.0845,-0.0925,0,0,0,-0.081,-0.0816,-0.0814,-0.0822,-0.0814,-0.0824,-0.08,-0.0797,-0.0787,-0.0772,-0.0737,-0.0737,-0.0797,-0.0843,-0.0922,-0.0935,-0.095,0,0,-0.0817,-0.0817,-0.0824,-0.0822,-0.0835,-0.0824,-0.0834,-0.0808,-0.0777,-0.0744,-0.0743,-0.08,-0.0845,-0.0924,-0.0926,-0.0942,0,0,0,-0.0826,-0.0829,-0.0833,-0.0839,-0.0845,-0.086,-0.083,-0.0823,-0.0801,-0.0771,-0.0778,-0.0805,-0.0854,-0.0853,-0.0866,-0.0824,-0.0736,-0.0736,-0.0736,-0.0821,-0.0832,-0.0844,-0.0856,-0.0867,-0.0875,-0.0896,-0.0876,-0.0822,-0.0819,-0.084,-0.0923,-0.0919,-0.093,-0.0885,-0.0809,-0.0809,-0.0809,-0.0809,-0.0829,-0.0836,-0.0857,-0.087,-0.0894,-0.0902,-0.0937,-0.0925,-0.0956,-0.088,-0.0924,-0.0899,-0.0947,-0.0894,-0.0813,-0.0813,-0.0812,-0.0812,-0.0811,-0.082,-0.0827,-0.0834,-0.0861,-0.0901,-0.0924,-0.1013,-0.1024,-0.1021,-0.1068,-0.1067,-0.1066,-0.1038,-0.108,-0.108,-0.1081,-0.1081,-0.1082,-0.1082,-0.0803,-0.0817,-0.0823,-0.0858,-0.0884,-0.0954,-0.1057,-0.112,-0.1172,-0.1154,-0.1154,-0.1054,-0.1006,-0.1017,-0.1091,-0.1089,-0.1088,-0.1087,-0.1087,-0.0785,-0.0786,-0.0798,-0.0819,-0.0904,-0.0967,-0.1096,-0.1233,-0.1313,-0.1343,-0.1213,-0.121,-0.1205,-0.1193,-0.1208,-0.1327,-0.1327,-0.1327,-0.1327,-0.0762,-0.0768,-0.0772,-0.0811,-0.0899,-0.0977,-0.1094,-0.1202,-0.1273,-0.1264,-0.1288,-0.1201,-0.1193,-0.1181,-0.1169,-0.1181,-0.1291,-0.129,-0.129,-0.0738,-0.0743,-0.0737,-0.078,-0.088,-0.097,-0.1012,-0.1071,-0.1188,-0.1283,-0.1233,-0.1235,-0.1096,-0.1087,-0.1052,-0.1039,-0.1052,0,0]},{"header":{"parameterUnit":"m.s-1","parameterCategory":2,"la1":30.2992,"la2":30.254,"lo1":-89.0895,"lo2":-89.0443,"dy":0.0025,"dx":0.0025,"nx":19,"ny":19,"refTime":"2026-04-03T09:00:00:Z","depth":"0","parameterNumber":3,"parameterNumberName":"V-component_of_CURRENTS"},"data":[0,0,0,0.0,0.0001,0.0053,0.0053,0.0144,0.0145,0,0,0,0,0,0,0,0,0,0,0,-0.002,-0.002,0.0,0.0001,0.0053,0.0053,0.0144,0.0145,0,0,0,0,0,0,0,0,0,0,0,-0.002,-0.002,-0.002,0.0001,0.0053,0.0053,0.0144,0.01,0,0,0,0,0,0,0,0,0,0,0.0047,0.002,-0.002,-0.002,0.0002,0.0053,0.0053,0.0098,0.0103,0.0126,0,0.0128,0,0.0138,0.0151,0.0152,0,0,0,0.0007,0.0016,0.0032,-0.002,0.0002,0.0053,0.0031,0.0101,0.0106,0.0133,0.0129,0.0133,0.014,0.0152,0.0152,0.0224,0.0225,0,0,0.0005,-0.0009,0.0028,0.0035,0.0009,0.003,0.0033,0.0104,0.0107,0.013,0.0135,0.0141,0.0152,0.0153,0.0224,0.0224,0,0,0,-0.0008,-0.0011,0.0002,0.0031,0.0038,0.0031,0.0035,0.0103,0.0108,0.0136,0.0142,0.0153,0.0154,0.0224,0.0224,0.0211,0,0,0,-0.0009,-0.0019,0.0001,-0.0006,0.0037,0.0068,0.0033,0.0103,0.0111,0.0142,0.0153,0.0155,0.0224,0.0224,0.0211,0.0185,0,0,0,-0.0021,-0.002,-0.0016,-0.0007,0.0013,0.0067,0.0076,0.0105,0.0115,0.0152,0.0155,0.0224,0.0224,0.0211,0.0186,0.0192,0,0,0,-0.0034,-0.0042,-0.0017,-0.0018,0.0012,0.0048,0.0075,0.0109,0.0138,0.0153,0.0224,0.0224,0.0211,0.0187,0.0192,0.023,0.0231,0,0,-0.0054,-0.0045,-0.0044,-0.002,-0.0004,0.0042,0.0077,0.0126,0.015,0.0204,0.0205,0.0211,0.0186,0.0192,0.0245,0.0245,0,0,0,-0.0057,-0.006,-0.0049,-0.0032,0.0007,0.0048,0.0103,0.0134,0.0181,0.0168,0.022,0.0205,0.0209,0.0233,0.0234,0.0397,0.0226,0.0226,0.0226,-0.0102,-0.008,-0.0079,-0.0045,-0.0014,0.0061,0.01,0.0153,0.0185,0.0203,0.0201,0.0203,0.023,0.023,0.0399,0.0221,0.0221,0.0221,0.0221,-0.0142,-0.0146,-0.0107,-0.0102,-0.0042,-0.0002,0.0095,0.0131,0.019,0.0204,0.021,0.0226,0.023,0.041,0.022,0.022,0.022,0.022,0.022,-0.0182,-0.0183,-0.0175,-0.0161,-0.0124,-0.0049,-0.001,0.0073,0.0152,0.017,0.0207,0.0208,0.0359,0.0177,0.0177,0.0177,0.0177,0.0177,0.0176,-0.0232,-0.0223,-0.0246,-0.0223,-0.0219,-0.0184,-0.0074,-0.0017,0.0106,0.0183,0.0184,0.0388,0.019,0.0183,0.0175,0.0175,0.0176,0.0176,0.0176,-0.029,-0.0288,-0.0329,-0.0341,-0.0336,-0.0328,-0.0214,-0.0048,0.0044,0.0116,0.0422,0.0206,0.0212,0.0212,0.0207,0.0205,0.0205,0.0205,0.0205,-0.0334,-0.0333,-0.0406,-0.0447,-0.046,-0.0401,-0.0308,-0.0074,0.0284,0.0482,0.0528,0.0579,0.057,0.06,0.0592,0.0596,0.0693,0.0694,0.0695,-0.0374,-0.0394,-0.0462,-0.0502,-0.0524,-0.0481,-0.0368,-0.0021,0.0528,0.0731,0.0751,0.073,0.0821,0.0794,0.0852,0.0827,0.0836,0,0]}],[{"header":{"parameterUnit":"m.s-1","parameterCategory":2,"la1":30.2992,"la2":30.254,"lo1":-89.0895,"lo2":-89.0443,"dy":0.0025,"dx":0.0025,"nx":19,"ny":19,"refTime":"2026-04-03T09:00:00:Z","depth":"2","parameterNumber":2,"parameterNumberName":"U-component_of_CURRENTS"},"data":[0,0,0,-0.0733,-0.0733,-0.0737,-0.0736,-0.07,-0.07,0,0,0,0,0,0,0,0,0,0,0,-0.0728,-0.0728,-0.0733,-0.0734,-0.0737,-0.0736,-0.07,-0.07,0,0,0,0,0,0,0,0,0,0,0,-0.0728,-0.0728,-0.0729,-0.0734,-0.0737,-0.0736,-0.07,-0.0706,0,0,0,0,0,0,0,0,0,0,-0.0708,-0.0707,-0.0728,-0.0729,-0.0734,-0.0737,-0.0736,-0.0707,-0.0706,-0.069,0,-0.0693,0,-0.0699,-0.0697,-0.0697,0,0,0,-0.0727,-0.0708,-0.0715,-0.0729,-0.0734,-0.0737,-0.0733,-0.0707,-0.0706,-0.0688,-0.0693,-0.0692,-0.0699,-0.0697,-0.0697,-0.0665,-0.0665,0,0,-0.0727,-0.0721,-0.0716,-0.0715,-0.0738,-0.0733,-0.0733,-0.0706,-0.0702,-0.0693,-0.0691,-0.0698,-0.0697,-0.0696,-0.0665,-0.0665,0,0,0,-0.0731,-0.0721,-0.0729,-0.0716,-0.0722,-0.0733,-0.0734,-0.0703,-0.0707,-0.0691,-0.0698,-0.0696,-0.0696,-0.0665,-0.0665,-0.0724,0,0,0,-0.073,-0.0724,-0.0729,-0.0724,-0.0722,-0.0717,-0.073,-0.0709,-0.0707,-0.0698,-0.0696,-0.0696,-0.0665,-0.0665,-0.0723,-0.0772,0,0,0,-0.0728,-0.0723,-0.0726,-0.0724,-0.073,-0.0718,-0.0721,-0.0709,-0.0711,-0.0697,-0.0695,-0.0665,-0.0665,-0.0722,-0.0768,-0.0843,0,0,0,-0.0718,-0.0726,-0.0726,-0.0737,-0.073,-0.0742,-0.0721,-0.072,-0.0711,-0.0696,-0.0665,-0.0665,-0.0721,-0.0766,-0.084,-0.0842,-0.0856,0,0,-0.0726,-0.0727,-0.0736,-0.0736,-0.0753,-0.0741,-0.0752,-0.0729,-0.0701,-0.067,-0.0669,-0.0723,-0.0768,-0.0842,-0.0835,-0.085,0,0,0,-0.0737,-0.0742,-0.0747,-0.0757,-0.0763,-0.078,-0.0751,-0.0743,-0.0724,-0.0696,-0.0704,-0.073,-0.0776,-0.077,-0.0781,-0.0664,-0.0664,-0.0664,-0.0664,-0.0731,-0.0746,-0.0761,-0.0777,-0.0789,-0.0796,-0.0815,-0.0795,-0.0743,-0.0742,-0.0764,-0.0842,-0.0832,-0.0842,-0.0734,-0.0734,-0.0734,-0.0734,-0.0734,-0.0743,-0.0754,-0.0778,-0.0796,-0.0821,-0.0829,-0.0857,-0.0845,-0.0872,-0.0801,-0.0842,-0.0813,-0.0858,-0.0739,-0.0738,-0.0737,-0.0737,-0.0736,-0.0736,-0.0735,-0.0744,-0.0757,-0.0791,-0.0833,-0.0855,-0.0936,-0.0943,-0.0936,-0.098,-0.0973,-0.0971,-0.0917,-0.0991,-0.0992,-0.0992,-0.0993,-0.0993,-0.0994,-0.0715,-0.0735,-0.0748,-0.0791,-0.082,-0.0887,-0.0981,-0.1037,-0.1077,-0.1056,-0.1055,-0.093,-0.0921,-0.0932,-0.1002,-0.1,-0.0999,-0.0998,-0.0998,-0.0697,-0.0703,-0.0725,-0.0751,-0.084,-0.0894,-0.1017,-0.1135,-0.1208,-0.1229,-0.1109,-0.1103,-0.1097,-0.1086,-0.11,-0.121,-0.121,-0.121,-0.121,-0.0673,-0.0683,-0.0701,-0.0747,-0.0834,-0.0901,-0.0985,-0.1045,-0.112,-0.1102,-0.1106,-0.1015,-0.101,-0.0992,-0.0983,-0.0991,-0.1074,-0.1073,-0.1073,-0.065,-0.066,-0.0663,-0.0716,-0.0817,-0.0887,-0.088,-0.0836,-0.0902,-0.1061,-0.1013,-0.1214,-0.1088,-0.1077,-0.1052,-0.1037,-0.1051,0,0]},{"header":{"parameterUnit":"m.s-1","parameterCategory":2,"la1":30.2992,"la2":30.254,"lo1":-89.0895,"lo2":-89.0443,"dy":0.0025,"dx":0.0025,"nx":19,"ny":19,"refTime":"2026-04-03T09:00:00:Z","depth":"2","parameterNumber":3,"parameterNumberName":"V-component_of_CURRENTS"},"data":[0,0,0,-0.0074,-0.0073,-0.0018,-0.0017,0.0073,0.0074,0,0,0,0,0,0,0,0,0,0,0,-0.0096,-0.0095,-0.0074,-0.0073,-0.0018,-0.0017,0.0073,0.0074,0,0,0,0,0,0,0,0,0,0,0,-0.0096,-0.0096,-0.0095,-0.0073,-0.0018,-0.0017,0.0073,0.0028,0,0,0,0,0,0,0,0,0,0,-0.0028,-0.0055,-0.0096,-0.0095,-0.0073,-0.0018,-0.0017,0.0025,0.0031,0.0052,0,0.0056,0,0.0067,0.008,0.0081,0,0,0,-0.0067,-0.0059,-0.0043,-0.0095,-0.0072,-0.0018,-0.0041,0.0028,0.0034,0.0059,0.0057,0.0061,0.0068,0.0081,0.0081,0.016,0.016,0,0,-0.0071,-0.0084,-0.0047,-0.0039,-0.0063,-0.0043,-0.0039,0.0032,0.0035,0.0058,0.0063,0.007,0.0081,0.0082,0.016,0.016,0,0,0,-0.0083,-0.0086,-0.0072,-0.0043,-0.0035,-0.0041,-0.0037,0.0032,0.0037,0.0064,0.0071,0.0082,0.0083,0.016,0.016,0.0147,0,0,0,-0.0085,-0.0094,-0.0073,-0.0081,-0.0036,-0.0004,-0.0039,0.0032,0.004,0.007,0.0082,0.0084,0.0159,0.016,0.0146,0.0117,0,0,0,-0.0097,-0.0095,-0.009,-0.0082,-0.006,-0.0005,0.0004,0.0034,0.0044,0.0081,0.0084,0.0159,0.016,0.0146,0.0118,0.012,0,0,0,-0.011,-0.0117,-0.0091,-0.009,-0.006,-0.0021,0.0004,0.0038,0.0068,0.0082,0.0159,0.016,0.0146,0.0119,0.0121,0.0144,0.0144,0,0,-0.013,-0.012,-0.0118,-0.0093,-0.0072,-0.0028,0.0012,0.0058,0.0083,0.0138,0.014,0.0146,0.0118,0.012,0.0169,0.0168,0,0,0,-0.0131,-0.0132,-0.012,-0.01,-0.0059,-0.0016,0.004,0.007,0.0119,0.0102,0.0159,0.0142,0.0143,0.0159,0.0159,0.0162,0.0162,0.0162,0.0162,-0.0175,-0.015,-0.0146,-0.0108,-0.0075,0.0001,0.004,0.0093,0.0126,0.0145,0.0141,0.0144,0.0162,0.0162,0.0166,0.0166,0.0166,0.0166,0.0166,-0.0213,-0.0214,-0.0171,-0.0162,-0.0099,-0.0057,0.0039,0.0075,0.0132,0.0148,0.0152,0.0157,0.016,0.0165,0.0165,0.0165,0.0166,0.0166,0.0166,-0.0252,-0.0251,-0.0239,-0.022,-0.018,-0.0103,-0.0066,0.0015,0.0093,0.0109,0.0135,0.0135,0.0121,0.0115,0.0115,0.0115,0.0115,0.0115,0.0114,-0.0303,-0.0289,-0.0309,-0.0281,-0.0276,-0.0239,-0.0132,-0.0079,0.0034,0.0107,0.0108,0.0127,0.0128,0.0119,0.0113,0.0113,0.0113,0.0113,0.0114,-0.0359,-0.0356,-0.0393,-0.0402,-0.0392,-0.0386,-0.0275,-0.0124,-0.0039,0.0025,0.0121,0.0122,0.0125,0.0126,0.0117,0.011,0.011,0.011,0.011,-0.0402,-0.0401,-0.047,-0.0507,-0.0518,-0.0461,-0.0386,-0.0193,0.0004,0.01,0.01,0.012,0.0121,0.0125,0.0126,0.0117,0.0111,0.011,0.011,-0.0441,-0.046,-0.0526,-0.0562,-0.0581,-0.0543,-0.0457,-0.0208,0.0062,0.0108,0.0074,0.0115,0.0148,0.0148,0.0157,0.0157,0.0145,0,0]}],[{"header":{"parameterUnit":"m.s-1","parameterCategory":2,"la1":30.2992,"la2":30.254,"lo1":-89.0895,"lo2":-89.0443,"dy":0.0025,"dx":0.0025,"nx":19,"ny":19,"refTime":"2026-04-03T09:00:00:Z","depth":"4","parameterNumber":2,"parameterNumberName":"U-component_of_CURRENTS"},"data":[0,0,0,-0.0526,-0.0528,-0.0577,-0.0577,-0.0471,-0.047,0,0,0,0,0,0,0,0,0,0,0,-0.0505,-0.0506,-0.0526,-0.0528,-0.0577,-0.0577,-0.0471,-0.047,0,0,0,0,0,0,0,0,0,0,0,-0.0505,-0.0506,-0.0506,-0.0528,-0.0577,-0.0577,-0.0471,-0.0474,0,0,0,0,0,0,0,0,0,0,-0.0446,-0.0451,-0.0505,-0.0506,-0.0528,-0.0577,-0.0577,-0.0476,-0.0473,-0.0404,0,-0.0422,0,-0.0445,-0.046,-0.0459,0,0,0,-0.0517,-0.0453,-0.0472,-0.0506,-0.0529,-0.0577,-0.0551,-0.0476,-0.0473,-0.04,-0.0421,-0.0419,-0.0444,-0.0459,-0.0458,-0.0373,-0.0373,0,0,-0.0514,-0.0501,-0.0475,-0.0471,-0.0551,-0.055,-0.0553,-0.0476,-0.0469,-0.0421,-0.0417,-0.0442,-0.0458,-0.0457,-0.0373,-0.0373,0,0,0,-0.0514,-0.0499,-0.0523,-0.0474,-0.0498,-0.0552,-0.0555,-0.0472,-0.0483,-0.0416,-0.0441,-0.0457,-0.0455,-0.0373,-0.0373,-0.0484,0,0,0,-0.0512,-0.05,-0.0522,-0.0512,-0.0501,-0.0508,-0.0553,-0.0489,-0.0482,-0.0441,-0.0457,-0.0454,-0.0373,-0.0373,-0.0481,-0.0522,0,0,0,-0.0501,-0.0498,-0.0509,-0.0512,-0.054,-0.0511,-0.0518,-0.0489,-0.0495,-0.0459,-0.0453,-0.0373,-0.0373,-0.0478,-0.0516,-0.0574,0,0,0,-0.0477,-0.0498,-0.0509,-0.0537,-0.054,-0.056,-0.0519,-0.0517,-0.0493,-0.0456,-0.0373,-0.0373,-0.0477,-0.0513,-0.057,-0.046,0,0,0,-0.0491,-0.0499,-0.0518,-0.053,-0.0572,-0.0552,-0.0576,-0.0528,-0.0471,-0.0383,-0.0383,-0.0482,-0.0516,-0.0573,-0.0485,0,0,0,0,-0.0514,-0.0531,-0.0543,-0.0574,-0.0585,-0.0612,-0.0568,-0.0555,-0.0522,-0.0462,-0.0459,-0.0477,-0.051,-0.0433,-0.0375,-0.0375,-0.0375,-0.0375,-0.0375,-0.0496,-0.0532,-0.0568,-0.061,-0.0624,-0.0637,-0.0656,-0.0623,-0.0546,-0.0559,-0.0552,-0.0646,-0.0567,-0.0535,-0.0535,-0.0536,-0.0536,-0.0536,-0.0537,-0.0521,-0.0544,-0.0597,-0.0647,-0.0682,-0.0694,-0.0714,-0.0704,-0.0711,-0.0636,-0.0663,-0.0534,-0.0547,-0.0545,-0.0543,-0.0542,-0.0541,-0.0541,-0.054,-0.0501,-0.0519,-0.0569,-0.0649,-0.0708,-0.0736,-0.0799,-0.0807,-0.0795,-0.0834,-0.0722,-0.0716,-0.0726,-0.0836,-0.0837,-0.0837,-0.0838,-0.0838,-0.0838,-0.0451,-0.0507,-0.0561,-0.0648,-0.0696,-0.0762,-0.0843,-0.0875,-0.0885,-0.0825,-0.0851,-0.0747,-0.0737,-0.0741,-0.0845,-0.0844,-0.0843,-0.0843,-0.0842,-0.0409,-0.0452,-0.0525,-0.0584,-0.0706,-0.0754,-0.0852,-0.0886,-0.0926,-0.0908,-0.0822,-0.0821,-0.0769,-0.0759,-0.0762,-0.0877,-0.0875,-0.0874,0,-0.0368,-0.0399,-0.0497,-0.0582,-0.0666,-0.0747,-0.0787,-0.0837,-0.0846,-0.0806,-0.092,-0.0821,-0.0819,-0.0756,-0.0746,-0.0746,0,0,0,-0.0336,-0.0379,-0.0426,-0.0541,-0.0639,-0.0709,-0.079,-0.0778,-0.0838,-0.0847,-0.0849,-0.0856,-0.0863,-0.0866,-0.0784,-0.0772,-0.0774,0,0]},{"header":{"parameterUnit":"m.s-1","parameterCategory":2,"la1":30.2992,"la2":30.254,"lo1":-89.0895,"lo2":-89.0443,"dy":0.0025,"dx":0.0025,"nx":19,"ny":19,"refTime":"2026-04-03T09:00:00:Z","depth":"4","parameterNumber":3,"parameterNumberName":"V-component_of_CURRENTS"},"data":[0,0,0,-0.0117,-0.0116,-0.0062,-0.0061,0.0014,0.0015,0,0,0,0,0,0,0,0,0,0,0,-0.0138,-0.0138,-0.0117,-0.0116,-0.0062,-0.0061,0.0014,0.0015,0,0,0,0,0,0,0,0,0,0,0,-0.0138,-0.0138,-0.0138,-0.0116,-0.0062,-0.0061,0.0014,-0.0028,0,0,0,0,0,0,0,0,0,0,-0.0081,-0.0104,-0.0138,-0.0138,-0.0116,-0.0062,-0.0061,-0.003,-0.0025,-0.0011,0,-0.0006,0,0.0006,0.0019,0.002,0,0,0,-0.0111,-0.0108,-0.0092,-0.0137,-0.0115,-0.0062,-0.0085,-0.0027,-0.0022,-0.0004,-0.0005,-0.0002,0.0007,0.002,0.002,0.0135,0.0136,0,0,-0.0114,-0.0127,-0.0096,-0.0089,-0.0105,-0.0087,-0.0083,-0.0024,-0.0021,-0.0004,0.0,0.0008,0.002,0.0021,0.0135,0.0136,0,0,0,-0.0126,-0.0129,-0.0115,-0.0092,-0.0083,-0.0085,-0.0081,-0.0024,-0.0019,0.0001,0.0009,0.0021,0.0021,0.0134,0.0135,0.0102,0,0,0,-0.0128,-0.0136,-0.0116,-0.0123,-0.0084,-0.0054,-0.0082,-0.0023,-0.0016,0.0009,0.0021,0.0022,0.0133,0.0135,0.0101,0.0063,0,0,0,-0.014,-0.0137,-0.0132,-0.0124,-0.0102,-0.0054,-0.0046,-0.0021,-0.0011,0.002,0.0022,0.0133,0.0134,0.0101,0.0063,0.0056,0,0,0,-0.0152,-0.0156,-0.0133,-0.0127,-0.0102,-0.0055,-0.0046,-0.0014,0.0011,0.0021,0.0133,0.0135,0.01,0.0063,0.0056,-0.0001,0,0,0,-0.0167,-0.0158,-0.0153,-0.0131,-0.01,-0.0062,-0.0012,0.0017,0.0048,0.0113,0.0116,0.0102,0.0063,0.0056,0.0104,0,0,0,0,-0.0164,-0.0162,-0.0147,-0.0122,-0.0078,-0.0035,0.0015,0.0043,0.0098,0.0071,0.0147,0.0124,0.012,0.009,0.0143,0.0143,0.0143,0.0143,0.0143,-0.0203,-0.0174,-0.0161,-0.0116,-0.0079,-0.0006,0.0029,0.0087,0.0118,0.0146,0.0131,0.0147,0.0121,0.0185,0.0185,0.0184,0.0184,0.0184,0.0184,-0.0229,-0.0221,-0.0175,-0.0158,-0.0095,-0.0047,0.0044,0.0073,0.013,0.0155,0.0153,0.0101,0.0182,0.0183,0.0183,0.0183,0.0183,0.0183,0.0183,-0.026,-0.0253,-0.024,-0.021,-0.0169,-0.0092,-0.0063,0.0011,0.0081,0.009,0.0071,0.0127,0.0089,0.0094,0.0094,0.0094,0.0094,0.0094,0.0094,-0.0301,-0.0285,-0.03,-0.0266,-0.0259,-0.0225,-0.0133,-0.0092,-0.0007,0.0021,0.0076,0.0117,0.012,0.0086,0.0091,0.0091,0.0092,0.0092,0.0092,-0.0334,-0.0342,-0.0371,-0.0378,-0.0364,-0.0334,-0.0254,-0.0156,-0.0121,-0.0079,-0.0005,0.0001,0.0001,0.0006,-0.0033,-0.0063,-0.0063,-0.0064,0,-0.0368,-0.0369,-0.0432,-0.0465,-0.0467,-0.0401,-0.035,-0.0274,-0.0165,-0.0173,-0.0128,-0.005,-0.0043,-0.0048,-0.0044,-0.0092,0,0,0,-0.039,-0.0413,-0.047,-0.0506,-0.0513,-0.0415,-0.0335,-0.0303,-0.0184,-0.0141,-0.0083,-0.0078,0.0004,0.0083,0.0095,0.0099,0.0044,0,0]}]]